Home > Time Zones > World Clock > Weather > Norway > Gran > Past weeks

Flag for Norway Weather past 2 weeks in Gran, Norway

28 °F


Feels Like: 25 °F
Forecast: 31 / 40 °F
Wind: 3 mph from North

Location: Oslo Gardermoen Airport

Current Time: Nov 26, 2015 at 1:17:25 AM

Latest Report: Nov 26, 2015 at 12:20 AM

Visibility: 10 mi

Pressure: 29.56 "Hg

Humidity: 86%

Dew point: 25 °F

Location of GranLocation

Historic Weather in Gran — Graph


Gran temperature yesterday

Maximum temperature yesterday: 36 °F (at 5:20 AM)
Minimum temperature yesterday: 28 °F (at 10:20 PM)
Average temperature yesterday: 33 °F

Past Weeks' High & Low Weather Summary

High48 °F (Nov 13, 11:20 AM)100% (Nov 12, 1:20 AM)29.92 "Hg (Nov 12, 1:20 AM)
Low14 °F (Nov 22, 6:20 AM)59% (Nov 22, 11:50 AM)29.15 "Hg (Nov 17, 11:20 PM)
Average30 °F90%29.51 "Hg
* Reported Nov 10 11:20 PM — Nov 25 11:50 PM, Gran, Weather by CustomWeather, © 2015

Note: Actual official high and low records may vary slightly from our data, if they occured in-between our weather recording intervals... More about our weather records


Gran weather history for previous 24 hours

Time TempWeatherWind HumidityBarometerVisibility
11:50 PM
Wed, Nov 25
28 °FPassing clouds.No wind86%29.53 "HgN/A
11:20 PM28 °FPassing clouds.5 mph93%29.53 "HgN/A
10:50 PM28 °FPassing clouds.5 mph93%29.53 "HgN/A
10:20 PM28 °FPassing clouds.3 mph93%29.53 "HgN/A
9:50 PM30 °FPassing clouds.3 mph93%29.50 "HgN/A
9:20 PM30 °FClear.3 mph93%29.50 "Hg10 mi
8:50 PM30 °FPassing clouds.2 mph93%29.50 "HgN/A
8:20 PM30 °FPassing clouds.2 mph100%29.47 "HgN/A
7:50 PM32 °FPassing clouds.No wind93%29.47 "HgN/A
7:20 PM32 °FPassing clouds.2 mph93%29.47 "HgN/A
6:50 PM32 °FLow clouds.2 mph93%29.45 "HgN/A
6:20 PM32 °FLow clouds.No wind87%29.45 "HgN/A
5:50 PM32 °FLow clouds.No wind93%29.45 "HgN/A
5:20 PM32 °FMostly cloudy.No wind93%29.45 "HgN/A
4:50 PM32 °FLow clouds.No wind93%29.42 "HgN/A
4:20 PM32 °FMostly cloudy.1 mph93%29.42 "Hg6 mi
3:50 PM32 °FMostly cloudy.2 mph93%29.42 "Hg6 mi
3:20 PM32 °FLow clouds.No wind93%29.42 "Hg5 mi
2:50 PM32 °FLow clouds.1 mph93%29.39 "Hg5 mi
2:20 PM32 °FLow clouds.1 mph100%29.39 "Hg6 mi
1:50 PM32 °FLow clouds.2 mph100%29.39 "Hg6 mi
1:20 PM34 °FLow clouds.3 mph93%29.39 "Hg6 mi
12:50 PM32 °FLow clouds.2 mph100%29.39 "Hg4 mi
12:20 PM34 °FFog.1 mph93%29.39 "Hg3 mi
11:50 AM32 °FLow clouds.2 mph100%29.39 "Hg4 mi
11:20 AM34 °FLow clouds.2 mph93%29.39 "Hg4 mi
10:50 AM34 °FLow clouds.3 mph93%29.36 "Hg4 mi
10:20 AM34 °FLow clouds.3 mph93%29.36 "Hg5 mi
9:50 AM34 °FLow clouds.2 mph93%29.36 "Hg4 mi
9:20 AM34 °FLow clouds.3 mph100%29.36 "Hg4 mi
8:50 AM34 °FLow clouds.2 mph100%29.36 "Hg4 mi
7:50 AM34 °FPassing clouds.3 mph100%29.33 "Hg5 mi
6:50 AM36 °FPassing clouds.6 mph93%29.33 "HgN/A
6:20 AM36 °FLight fog.6 mph93%29.33 "HgN/A
5:50 AM36 °FSleet. Low clouds.5 mph93%29.33 "HgN/A
5:20 AM36 °FPassing clouds.3 mph100%29.33 "Hg6 mi
4:50 AM34 °FLow clouds.No wind100%29.33 "Hg5 mi
4:20 AM34 °FMostly cloudy.No wind100%29.33 "Hg1 mi
3:50 AM34 °FFog.No wind93%29.33 "Hg1 mi
3:20 AM34 °FFog.No wind100%29.33 "Hg1 mi
2:50 AM34 °FFog.No wind93%29.33 "Hg1 mi
2:20 AM34 °FFog.No wind100%29.33 "Hg1 mi
1:50 AM34 °FChilly.No wind100%29.33 "Hg1 mi
Weather by CustomWeather, © 2015

See weather overviewHow to use our weather pages